PTI737 KHOU-RJCC

Flight info

Callsign PTI737
Flight time N/A
Altitude 34000
Route STYCK8 DOLEY DCT KF30C DCT KK45A DCT KD69W DCT CABYN DCT 49N13 DCT NORET DCT 53N20 DCT DUXAR DCT SSR J541 YAK DCT REMBY DCT TED DCT NODLE R220 NEONN G349 MARCC G583 BESAT/K0791F340 G583 BISIV/N0413F340 G583 MVE V8 BEEBA V1 KURIS
Aircraft B737/M-SDE2E3FGHIRWXY/LB1

Departure

Time 2026-04-29 03:01
Airport William P. Hobby Airport (KHOU)

Arrival

Time N/A
Airport New Chitose Airport (RJCC)
Time Latitude Longitude Altitude Speed Heading
2026-04-29 02:45 29.65645 -95.27114 48 ft 0 kts 92°
2026-04-29 02:57 29.65600 -95.27121 51 ft 9 kts 207°
2026-04-29 02:57 29.65575 -95.27137 51 ft 1 kts 212°
2026-04-29 02:58 29.65523 -95.27183 51 ft 18 kts 219°
2026-04-29 02:58 29.65483 -95.27107 51 ft 17 kts 86°
2026-04-29 02:58 29.65484 -95.27012 51 ft 7 kts 94°
2026-04-29 02:58 29.65483 -95.27002 51 ft 0 kts 95°
2026-04-29 02:59 29.65471 -95.26958 51 ft 6 kts 118°
2026-04-29 02:59 29.65468 -95.26952 47 ft 0 kts 120°
2026-04-29 03:00 29.65437 -95.26915 51 ft 21 kts 135°
2026-04-29 03:00 29.65318 -95.26980 49 ft 45 kts 224°
2026-04-29 03:01 29.64902 -95.27435 49 ft 118 kts 224°
2026-04-29 03:01 29.64166 -95.28250 170 ft 164 kts 220°
2026-04-29 03:01 29.63401 -95.29088 1234 ft 139 kts 219°
2026-04-29 03:01 29.62681 -95.29847 1938 ft 150 kts 221°
2026-04-29 03:02 29.61881 -95.30779 2225 ft 177 kts 222°
2026-04-29 03:02 29.60990 -95.31906 2428 ft 207 kts 232°
2026-04-29 03:02 29.60569 -95.33575 2856 ft 230 kts 261°
2026-04-29 03:02 29.60774 -95.35474 3314 ft 255 kts 284°
2026-04-29 03:03 29.61779 -95.37246 3882 ft 279 kts 313°
2026-04-29 03:03 29.63460 -95.38424 4748 ft 288 kts 334°
2026-04-29 03:03 29.65376 -95.39122 5564 ft 292 kts 340°
2026-04-29 03:03 29.67362 -95.39687 6347 ft 294 kts 341°
2026-04-29 03:04 29.69352 -95.40220 7125 ft 293 kts 342°
2026-04-29 03:04 29.71341 -95.40757 7893 ft 293 kts 342°
2026-04-29 03:04 29.73321 -95.41304 8684 ft 292 kts 342°
2026-04-29 03:04 29.75293 -95.41860 9459 ft 292 kts 342°
2026-04-29 03:05 29.77267 -95.42426 10169 ft 293 kts 343°
2026-04-29 03:05 29.79289 -95.43015 10469 ft 310 kts 342°
2026-04-29 03:05 29.81404 -95.43637 10802 ft 323 kts 342°
2026-04-29 03:05 29.83624 -95.44292 11391 ft 328 kts 342°
2026-04-29 03:06 29.85814 -95.44937 12026 ft 330 kts 342°
2026-04-29 03:06 29.88043 -95.45596 12670 ft 333 kts 342°
2026-04-29 03:06 29.90295 -95.46263 13313 ft 335 kts 341°
2026-04-29 03:06 29.92565 -95.46937 13940 ft 338 kts 341°
2026-04-29 03:07 29.94854 -95.47617 14531 ft 340 kts 341°
2026-04-29 03:07 29.97152 -95.48300 15142 ft 342 kts 341°
2026-04-29 03:07 29.99462 -95.48988 15762 ft 344 kts 341°
2026-04-29 03:07 30.01788 -95.49680 16368 ft 346 kts 340°
2026-04-29 03:08 30.04125 -95.50377 16989 ft 348 kts 340°
2026-04-29 03:08 30.06478 -95.51079 17614 ft 350 kts 340°
2026-04-29 03:08 30.08838 -95.51783 18236 ft 352 kts 340°
2026-04-29 03:08 30.11214 -95.52492 18792 ft 353 kts 340°
2026-04-29 03:09 30.13594 -95.53202 19315 ft 354 kts 340°
2026-04-29 03:09 30.15988 -95.53918 19856 ft 357 kts 340°
2026-04-29 03:09 30.18396 -95.54638 20372 ft 359 kts 340°
2026-04-29 03:09 30.20827 -95.55366 20899 ft 361 kts 340°
2026-04-29 03:10 30.23266 -95.56096 21422 ft 363 kts 340°
2026-04-29 03:10 30.25723 -95.56831 21935 ft 366 kts 340°
2026-04-29 03:10 30.28193 -95.57571 22445 ft 368 kts 339°
2026-04-29 03:10 30.30686 -95.58319 22921 ft 371 kts 339°
2026-04-29 03:11 30.33195 -95.59071 23405 ft 374 kts 339°
2026-04-29 03:11 30.35721 -95.59829 23826 ft 376 kts 339°
2026-04-29 03:11 30.38256 -95.60590 24252 ft 377 kts 339°
2026-04-29 03:11 30.40804 -95.61354 24709 ft 378 kts 339°
2026-04-29 03:12 30.43351 -95.62119 25153 ft 379 kts 339°
2026-04-29 03:12 30.45902 -95.62886 25532 ft 380 kts 339°
2026-04-29 03:12 30.48463 -95.63656 25893 ft 381 kts 339°
2026-04-29 03:12 30.51031 -95.64430 26320 ft 382 kts 339°
2026-04-29 03:13 30.53591 -95.65257 26729 ft 381 kts 334°
2026-04-29 03:13 30.56023 -95.66436 27124 ft 378 kts 329°
2026-04-29 03:13 30.58409 -95.67718 27526 ft 379 kts 329°
2026-04-29 03:13 30.60798 -95.69018 27917 ft 380 kts 329°
2026-04-29 03:14 30.63197 -95.70321 28344 ft 381 kts 329°
2026-04-29 03:14 30.65603 -95.71624 28721 ft 383 kts 329°
2026-04-29 03:14 30.68025 -95.72929 29084 ft 384 kts 329°
2026-04-29 03:14 30.70457 -95.74235 29448 ft 386 kts 329°
2026-04-29 03:15 30.72896 -95.75543 29795 ft 387 kts 329°
2026-04-29 03:15 30.75345 -95.76856 30110 ft 389 kts 329°
2026-04-29 03:15 30.77804 -95.78174 30400 ft 390 kts 329°
2026-04-29 03:15 30.80271 -95.79496 30702 ft 390 kts 329°
2026-04-29 03:16 30.82737 -95.80819 30993 ft 391 kts 329°
2026-04-29 03:16 30.85178 -95.82129 31267 ft 392 kts 328°
2026-04-29 03:16 30.87657 -95.83460 31530 ft 393 kts 328°
2026-04-29 03:16 30.90144 -95.84797 31792 ft 393 kts 328°
2026-04-29 03:17 30.92628 -95.86133 32043 ft 394 kts 328°
2026-04-29 03:17 30.95118 -95.87473 32271 ft 395 kts 328°
2026-04-29 03:17 30.97614 -95.88817 32506 ft 395 kts 328°
2026-04-29 03:17 31.00113 -95.90163 32728 ft 396 kts 328°
2026-04-29 03:18 31.02614 -95.91511 32940 ft 397 kts 328°
2026-04-29 03:18 31.05122 -95.92864 33151 ft 397 kts 327°
2026-04-29 03:18 31.07630 -95.94218 33349 ft 398 kts 327°
2026-04-29 03:18 31.10146 -95.95576 33541 ft 398 kts 327°
2026-04-29 03:19 31.12666 -95.96908 33933 ft 397 kts 329°
2026-04-29 03:19 31.15274 -95.98049 33826 ft 403 kts 332°
2026-04-29 03:19 31.17929 -95.99078 33917 ft 400 kts 333°
2026-04-29 03:20 31.23196 -96.01039 33910 ft 395 kts 333°
2026-04-29 03:20 31.28400 -96.03007 33912 ft 392 kts 332°
2026-04-29 03:21 31.33566 -96.04999 33906 ft 390 kts 332°
2026-04-29 03:21 31.38721 -96.07003 33945 ft 391 kts 332°
2026-04-29 03:22 31.43893 -96.09020 33916 ft 393 kts 332°
2026-04-29 03:22 31.49086 -96.11046 33915 ft 394 kts 332°
2026-04-29 03:23 31.54299 -96.13081 33917 ft 395 kts 332°
2026-04-29 03:23 31.59527 -96.15125 33912 ft 397 kts 332°
2026-04-29 03:24 31.64778 -96.17179 33935 ft 398 kts 332°
2026-04-29 03:24 31.70038 -96.19239 33951 ft 399 kts 332°
2026-04-29 03:25 31.75311 -96.21307 33931 ft 400 kts 332°
2026-04-29 03:25 31.80551 -96.23363 33920 ft 400 kts 332°
2026-04-29 03:26 31.85831 -96.25439 33926 ft 400 kts 332°
2026-04-29 03:26 31.91109 -96.27517 33928 ft 400 kts 332°
2026-04-29 03:27 31.96391 -96.29599 33941 ft 401 kts 333°
2026-04-29 03:27 32.01693 -96.31692 33942 ft 403 kts 333°
2026-04-29 03:28 32.06123 -96.33442 33940 ft 404 kts 333°
2026-04-29 03:28 32.11473 -96.35558 33939 ft 406 kts 333°
2026-04-29 03:29 32.16841 -96.37683 33935 ft 408 kts 333°
2026-04-29 03:29 32.22089 -96.40124 33935 ft 403 kts 326°
2026-04-29 03:30 32.27136 -96.42963 33919 ft 402 kts 326°
2026-04-29 03:30 32.32170 -96.45824 33915 ft 401 kts 326°
2026-04-29 03:31 32.39724 -96.50063 33912 ft 400 kts 326°
2026-04-29 03:31 32.44754 -96.52871 33914 ft 399 kts 326°
2026-04-29 03:32 32.49782 -96.55677 33920 ft 400 kts 325°
2026-04-29 03:32 32.54812 -96.58489 33918 ft 400 kts 325°
2026-04-29 03:33 32.59852 -96.61310 33921 ft 401 kts 325°
2026-04-29 03:33 32.64863 -96.64117 33926 ft 401 kts 325°
2026-04-29 03:34 32.69918 -96.66953 33932 ft 402 kts 325°
2026-04-29 03:34 32.74980 -96.69797 33924 ft 403 kts 325°
2026-04-29 03:35 32.80057 -96.72652 33932 ft 404 kts 325°
2026-04-29 03:35 32.85129 -96.75507 33938 ft 403 kts 325°
2026-04-29 03:36 32.90194 -96.78362 33932 ft 403 kts 325°
2026-04-29 03:36 32.95259 -96.81221 33970 ft 402 kts 325°
2026-04-29 03:37 33.00319 -96.84081 33974 ft 403 kts 325°
2026-04-29 03:37 33.05373 -96.86941 33900 ft 402 kts 325°
2026-04-29 03:38 33.10409 -96.89794 33903 ft 400 kts 325°
2026-04-29 03:38 33.15426 -96.92640 33921 ft 398 kts 325°
2026-04-29 03:39 33.20423 -96.95479 33936 ft 397 kts 325°
2026-04-29 03:39 33.25402 -96.98311 33942 ft 396 kts 325°
2026-04-29 03:40 33.30368 -97.01140 33951 ft 395 kts 325°
2026-04-29 03:40 33.35304 -97.03956 33941 ft 395 kts 325°
2026-04-29 03:41 33.40270 -97.06793 33935 ft 396 kts 325°
2026-04-29 03:41 33.45238 -97.09634 33972 ft 396 kts 325°
2026-04-29 03:42 33.50221 -97.12488 34022 ft 398 kts 325°
2026-04-29 03:42 33.55219 -97.15352 34043 ft 398 kts 325°
2026-04-29 03:43 33.60213 -97.18218 34045 ft 398 kts 325°
2026-04-29 03:43 33.65203 -97.21084 34045 ft 397 kts 325°
2026-04-29 03:44 33.70185 -97.23951 34043 ft 397 kts 325°
2026-04-29 03:44 33.75165 -97.26820 33961 ft 396 kts 324°
2026-04-29 03:45 33.80132 -97.29685 33928 ft 395 kts 324°
2026-04-29 03:45 33.85074 -97.32537 33916 ft 393 kts 324°
2026-04-29 03:46 33.89985 -97.35377 33919 ft 390 kts 324°
2026-04-29 03:46 33.94863 -97.38201 33922 ft 388 kts 324°
2026-04-29 03:47 33.99712 -97.41014 33969 ft 386 kts 324°
2026-04-29 03:47 34.04544 -97.43822 33939 ft 385 kts 324°
2026-04-29 03:48 34.09356 -97.46619 33932 ft 384 kts 324°
2026-04-29 03:48 34.14156 -97.49414 33934 ft 383 kts 324°
2026-04-29 03:49 34.18950 -97.52209 33936 ft 383 kts 324°
2026-04-29 03:49 34.23746 -97.55010 33942 ft 383 kts 324°
2026-04-29 03:50 34.28560 -97.57824 33949 ft 385 kts 324°
2026-04-29 03:50 34.33392 -97.60651 33954 ft 386 kts 324°
2026-04-29 03:51 34.38227 -97.63483 33945 ft 386 kts 324°
2026-04-29 03:51 34.43063 -97.66319 33945 ft 386 kts 324°
2026-04-29 03:52 34.47895 -97.69156 34003 ft 386 kts 323°
2026-04-29 03:52 34.52727 -97.71998 34017 ft 386 kts 323°
2026-04-29 03:53 34.57552 -97.74839 34015 ft 385 kts 323°
2026-04-29 03:53 34.62336 -97.77659 34014 ft 384 kts 323°
2026-04-29 03:54 34.67141 -97.80496 34004 ft 384 kts 323°
2026-04-29 03:54 34.71934 -97.83329 33997 ft 382 kts 323°
2026-04-29 03:55 34.76715 -97.86160 33986 ft 383 kts 323°
2026-04-29 03:55 34.81503 -97.89000 34001 ft 383 kts 323°
2026-04-29 03:56 34.86303 -97.91849 34022 ft 384 kts 323°
2026-04-29 03:56 34.91111 -97.94707 34041 ft 385 kts 323°
2026-04-29 03:57 34.95929 -97.97573 34067 ft 385 kts 322°
2026-04-29 03:57 35.00711 -98.00507 34064 ft 381 kts 318°
2026-04-29 03:58 35.05189 -98.03932 34079 ft 380 kts 317°
2026-04-29 03:58 35.09658 -98.07414 34080 ft 382 kts 317°
2026-04-29 03:59 35.14151 -98.10906 34064 ft 384 kts 317°
2026-04-29 03:59 35.18668 -98.14409 34016 ft 385 kts 317°
2026-04-29 04:00 35.23198 -98.17919 34072 ft 386 kts 317°
2026-04-29 04:00 35.27750 -98.21453 34037 ft 389 kts 317°
2026-04-29 04:01 35.32328 -98.25010 34033 ft 390 kts 317°
2026-04-29 04:01 35.36920 -98.28581 34028 ft 392 kts 317°
2026-04-29 04:02 35.41527 -98.32169 34024 ft 393 kts 317°
2026-04-29 04:02 35.46108 -98.35741 34012 ft 393 kts 317°
2026-04-29 04:03 35.50721 -98.39344 34018 ft 393 kts 318°
2026-04-29 04:03 35.55334 -98.42952 33998 ft 393 kts 318°
2026-04-29 04:04 35.59947 -98.46565 34052 ft 393 kts 318°
2026-04-29 04:04 35.64558 -98.50181 34051 ft 393 kts 318°
2026-04-29 04:05 35.69172 -98.53805 34047 ft 393 kts 317°
2026-04-29 04:05 35.73785 -98.57434 34042 ft 393 kts 317°
2026-04-29 04:06 35.78394 -98.61063 34028 ft 393 kts 317°
2026-04-29 04:06 35.83001 -98.64697 34021 ft 393 kts 317°
2026-04-29 04:07 35.87603 -98.68332 33996 ft 393 kts 317°
2026-04-29 04:07 35.92206 -98.71973 33978 ft 393 kts 317°
2026-04-29 04:08 35.96806 -98.75617 34002 ft 394 kts 317°
2026-04-29 04:08 36.01415 -98.79274 33998 ft 394 kts 317°
2026-04-29 04:09 36.06036 -98.82945 33999 ft 395 kts 317°
2026-04-29 04:09 36.10667 -98.86629 33993 ft 396 kts 317°
2026-04-29 04:10 36.15305 -98.90323 34001 ft 397 kts 317°
2026-04-29 04:10 36.19953 -98.94031 34004 ft 398 kts 317°
2026-04-29 04:11 36.24606 -98.97748 34004 ft 398 kts 317°
2026-04-29 04:11 36.29269 -99.01478 34001 ft 399 kts 317°
2026-04-29 04:12 36.33906 -99.05192 34003 ft 399 kts 317°
2026-04-29 04:12 36.38570 -99.08934 34004 ft 399 kts 317°
2026-04-29 04:13 36.43236 -99.12682 34017 ft 399 kts 317°
2026-04-29 04:13 36.47893 -99.16429 34007 ft 398 kts 317°
2026-04-29 04:14 36.52535 -99.20168 34022 ft 397 kts 317°
2026-04-29 04:14 36.57157 -99.23897 34016 ft 395 kts 317°
2026-04-29 04:15 36.61760 -99.27617 34011 ft 394 kts 317°
2026-04-29 04:15 36.65573 -99.30703 34045 ft 393 kts 316°
2026-04-29 04:16 36.70177 -99.34434 34037 ft 392 kts 316°
2026-04-29 04:16 36.74706 -99.38109 34028 ft 390 kts 316°
2026-04-29 04:17 36.79244 -99.41796 34032 ft 388 kts 316°
2026-04-29 04:17 36.83761 -99.45472 34039 ft 387 kts 316°
2026-04-29 04:18 36.88270 -99.49148 34068 ft 387 kts 316°
2026-04-29 04:18 36.92774 -99.52825 34042 ft 386 kts 315°
2026-04-29 04:19 36.97270 -99.56499 34045 ft 385 kts 315°
2026-04-29 04:19 37.01755 -99.60170 34042 ft 385 kts 315°
2026-04-29 04:20 37.06232 -99.63840 34049 ft 385 kts 315°
2026-04-29 04:20 37.10716 -99.67522 34066 ft 386 kts 315°
2026-04-29 04:21 37.15207 -99.71215 34065 ft 386 kts 315°
2026-04-29 04:21 37.19701 -99.74913 34070 ft 386 kts 315°
2026-04-29 04:22 37.24194 -99.78617 34068 ft 387 kts 315°
2026-04-29 04:22 37.28689 -99.82328 34074 ft 387 kts 315°
2026-04-29 04:23 37.33186 -99.86047 34086 ft 388 kts 315°
2026-04-29 04:23 37.37658 -99.89749 34077 ft 387 kts 315°
2026-04-29 04:24 37.42153 -99.93477 34087 ft 386 kts 315°
2026-04-29 04:24 37.46664 -99.97223 34102 ft 386 kts 315°
2026-04-29 04:25 37.51094 -100.00931 34113 ft 383 kts 313°
2026-04-29 04:25 37.55373 -100.04867 34128 ft 380 kts 312°
2026-04-29 04:26 37.59590 -100.08856 34126 ft 379 kts 312°
2026-04-29 04:26 37.63802 -100.12825 34137 ft 377 kts 312°
2026-04-29 04:27 37.68008 -100.16770 34137 ft 376 kts 312°
2026-04-29 04:27 37.72213 -100.20709 34150 ft 376 kts 312°
2026-04-29 04:28 37.76411 -100.24644 34158 ft 376 kts 312°
2026-04-29 04:28 37.80608 -100.28583 34129 ft 375 kts 311°
2026-04-29 04:29 37.84795 -100.32517 34118 ft 374 kts 311°
2026-04-29 04:29 37.88965 -100.36441 34130 ft 373 kts 311°
2026-04-29 04:30 37.93127 -100.40364 34131 ft 373 kts 311°
2026-04-29 04:31 37.99357 -100.46247 34126 ft 372 kts 311°
2026-04-29 04:31 38.03510 -100.50175 34131 ft 373 kts 311°
2026-04-29 04:32 38.07667 -100.54114 34127 ft 373 kts 311°
2026-04-29 04:32 38.11816 -100.58050 34145 ft 374 kts 311°
2026-04-29 04:33 38.15994 -100.62019 34130 ft 374 kts 311°
2026-04-29 04:33 38.20163 -100.65987 34147 ft 375 kts 311°
2026-04-29 04:34 38.24336 -100.69961 34159 ft 374 kts 311°
2026-04-29 04:34 38.28495 -100.73928 34167 ft 373 kts 311°
2026-04-29 04:35 38.32609 -100.77857 34174 ft 371 kts 311°
2026-04-29 04:35 38.36727 -100.81796 34201 ft 369 kts 310°
2026-04-29 04:36 38.40830 -100.85729 34212 ft 369 kts 310°
2026-04-29 04:36 38.44919 -100.89655 34208 ft 368 kts 310°
2026-04-29 04:37 38.49000 -100.93577 34212 ft 367 kts 310°
2026-04-29 04:37 38.53068 -100.97494 34212 ft 366 kts 310°
2026-04-29 04:38 38.57138 -101.01418 34202 ft 366 kts 310°
2026-04-29 04:38 38.61208 -101.05349 34226 ft 367 kts 310°
2026-04-29 04:39 38.65291 -101.09298 34171 ft 368 kts 310°
2026-04-29 04:39 38.69381 -101.13257 34119 ft 368 kts 310°
2026-04-29 04:40 38.73467 -101.17218 34114 ft 368 kts 310°
2026-04-29 04:40 38.77550 -101.21181 34118 ft 368 kts 310°
2026-04-29 04:41 38.81599 -101.25119 34148 ft 368 kts 310°
2026-04-29 04:41 38.85682 -101.29095 34126 ft 368 kts 310°
2026-04-29 04:42 38.89760 -101.33073 34107 ft 368 kts 309°
2026-04-29 04:42 38.93837 -101.37055 34108 ft 368 kts 309°
2026-04-29 04:43 38.97913 -101.41042 34112 ft 368 kts 309°
2026-04-29 04:43 39.01986 -101.45033 34149 ft 368 kts 310°
2026-04-29 04:44 39.06063 -101.49034 34114 ft 369 kts 310°
2026-04-29 04:44 39.10139 -101.53039 34118 ft 368 kts 310°
2026-04-29 04:45 39.14210 -101.57043 34131 ft 368 kts 310°
2026-04-29 04:45 39.18280 -101.61055 34160 ft 368 kts 310°
2026-04-29 04:46 39.22345 -101.65066 34212 ft 368 kts 310°
2026-04-29 04:46 39.26412 -101.69088 34199 ft 369 kts 310°
2026-04-29 04:47 39.30489 -101.73125 34191 ft 370 kts 310°
2026-04-29 04:47 39.34572 -101.77174 34200 ft 370 kts 310°
2026-04-29 04:48 39.38664 -101.81238 34102 ft 372 kts 310°
2026-04-29 04:48 39.42766 -101.85317 34149 ft 372 kts 310°
2026-04-29 04:49 39.46859 -101.89396 34142 ft 374 kts 310°
2026-04-29 04:49 39.50995 -101.93521 34147 ft 376 kts 310°
2026-04-29 04:50 39.55143 -101.97664 34155 ft 377 kts 310°
2026-04-29 04:50 39.59301 -102.01824 34165 ft 378 kts 310°
2026-04-29 04:51 39.63466 -102.05999 34192 ft 379 kts 311°
2026-04-29 04:51 39.67650 -102.10200 34155 ft 381 kts 311°
2026-04-29 04:52 39.71852 -102.14425 34141 ft 383 kts 311°
2026-04-29 04:52 39.76067 -102.18667 34137 ft 384 kts 311°
2026-04-29 04:53 39.80285 -102.22920 34117 ft 384 kts 311°
2026-04-29 04:53 39.84510 -102.27189 34140 ft 385 kts 312°
2026-04-29 04:54 39.88746 -102.31475 34123 ft 386 kts 312°
2026-04-29 04:54 39.92993 -102.35778 34121 ft 386 kts 312°
2026-04-29 04:55 39.97231 -102.40078 34116 ft 386 kts 312°
2026-04-29 04:55 40.01473 -102.44390 34120 ft 386 kts 311°
2026-04-29 04:56 40.05701 -102.48695 34122 ft 385 kts 311°
2026-04-29 04:56 40.09923 -102.53001 34124 ft 385 kts 311°
2026-04-29 04:57 40.14144 -102.57313 34127 ft 385 kts 311°
2026-04-29 04:57 40.18358 -102.61626 34121 ft 385 kts 311°
2026-04-29 04:58 40.22569 -102.65942 34165 ft 385 kts 312°
2026-04-29 04:58 40.26790 -102.70278 34136 ft 386 kts 312°
2026-04-29 04:59 40.30986 -102.74592 34140 ft 386 kts 312°
2026-04-29 04:59 40.35207 -102.78938 34137 ft 386 kts 312°
2026-04-29 05:00 40.39429 -102.83295 34141 ft 386 kts 312°
2026-04-29 05:00 40.43651 -102.87658 34143 ft 387 kts 312°
2026-04-29 05:01 40.47886 -102.92042 34144 ft 388 kts 313°
2026-04-29 05:01 40.52125 -102.96437 34146 ft 388 kts 313°
2026-04-29 05:02 40.56366 -103.00840 34142 ft 389 kts 313°
2026-04-29 05:02 40.60609 -103.05253 34183 ft 389 kts 312°
2026-04-29 05:03 40.64866 -103.09691 34149 ft 391 kts 313°
2026-04-29 05:03 40.69129 -103.14140 34196 ft 391 kts 313°
2026-04-29 05:04 40.72676 -103.17847 34196 ft 392 kts 313°
2026-04-29 05:04 40.76945 -103.22316 34194 ft 392 kts 313°
2026-04-29 05:05 40.81217 -103.26796 34171 ft 393 kts 313°
2026-04-29 05:05 40.85493 -103.31288 34151 ft 393 kts 313°
2026-04-29 05:06 40.89774 -103.35792 34146 ft 393 kts 313°
2026-04-29 05:06 40.94048 -103.40296 34157 ft 393 kts 313°
2026-04-29 05:07 40.98315 -103.44801 34168 ft 392 kts 313°
2026-04-29 05:07 41.02577 -103.49309 34187 ft 392 kts 313°
2026-04-29 05:08 41.06833 -103.53819 34196 ft 392 kts 313°
2026-04-29 05:08 41.11086 -103.58333 34208 ft 392 kts 313°
2026-04-29 05:09 41.15337 -103.62853 34215 ft 392 kts 313°
2026-04-29 05:09 41.19598 -103.67391 34215 ft 393 kts 313°
2026-04-29 05:10 41.23866 -103.71944 34222 ft 394 kts 313°
2026-04-29 05:10 41.28143 -103.76515 34210 ft 395 kts 313°
2026-04-29 05:11 41.32428 -103.81102 34192 ft 396 kts 313°
2026-04-29 05:11 41.36715 -103.85699 34197 ft 396 kts 314°
2026-04-29 05:12 41.41013 -103.90317 34176 ft 397 kts 314°
2026-04-29 05:12 41.45320 -103.94952 34166 ft 398 kts 314°
2026-04-29 05:13 41.49635 -103.99603 34152 ft 399 kts 314°
2026-04-29 05:13 41.54049 -104.04156 34158 ft 402 kts 316°
2026-04-29 05:14 41.58521 -104.08580 34166 ft 404 kts 316°
2026-04-29 05:14 41.63038 -104.13061 34149 ft 405 kts 316°
2026-04-29 05:15 41.67552 -104.17572 34154 ft 406 kts 316°
2026-04-29 05:15 41.72066 -104.22107 34124 ft 406 kts 316°
2026-04-29 05:16 41.76593 -104.26668 34151 ft 408 kts 317°
2026-04-29 05:16 41.81133 -104.31251 34163 ft 409 kts 317°
2026-04-29 05:17 41.85688 -104.35857 34158 ft 411 kts 317°
2026-04-29 05:17 41.90258 -104.40486 34159 ft 412 kts 317°
2026-04-29 05:18 41.94834 -104.45129 34155 ft 413 kts 316°
2026-04-29 05:18 41.99416 -104.49787 34150 ft 413 kts 316°
2026-04-29 05:19 42.03994 -104.54449 34144 ft 413 kts 316°
2026-04-29 05:19 42.08569 -104.59117 34160 ft 412 kts 316°
2026-04-29 05:20 42.13137 -104.63788 34152 ft 412 kts 317°
2026-04-29 05:20 42.17697 -104.68458 34159 ft 412 kts 317°
2026-04-29 05:21 42.22253 -104.73134 34176 ft 411 kts 317°
2026-04-29 05:21 42.26772 -104.77780 34175 ft 411 kts 317°
2026-04-29 05:22 42.31321 -104.82467 34177 ft 411 kts 317°
2026-04-29 05:22 42.35913 -104.87209 34240 ft 420 kts 317°
2026-04-29 05:23 42.40588 -104.92047 34427 ft 425 kts 317°
2026-04-29 05:23 42.42938 -104.94478 34614 ft 425 kts 317°
2026-04-29 05:23 42.45285 -104.96908 34830 ft 425 kts 317°
2026-04-29 05:23 42.47631 -104.99340 35027 ft 425 kts 317°
2026-04-29 05:24 42.49974 -105.01771 35232 ft 424 kts 317°
2026-04-29 05:24 42.52305 -105.04192 35512 ft 421 kts 317°
2026-04-29 05:24 42.54621 -105.06599 35799 ft 418 kts 317°
2026-04-29 05:24 42.56921 -105.08992 36040 ft 416 kts 317°
2026-04-29 05:25 42.59220 -105.11390 36129 ft 418 kts 316°
2026-04-29 05:25 42.63846 -105.16223 36157 ft 419 kts 317°
2026-04-29 05:26 42.68455 -105.21043 36171 ft 417 kts 317°
2026-04-29 05:26 42.73044 -105.25851 36176 ft 416 kts 317°
2026-04-29 05:27 42.77617 -105.30653 36177 ft 415 kts 316°
2026-04-29 05:27 42.84467 -105.37863 36197 ft 415 kts 317°
2026-04-29 05:28 42.89041 -105.42690 36183 ft 416 kts 317°
2026-04-29 05:28 42.93627 -105.47538 36097 ft 417 kts 317°
2026-04-29 05:29 42.98222 -105.52404 36109 ft 418 kts 317°
2026-04-29 05:29 43.02825 -105.57289 36103 ft 420 kts 317°
2026-04-29 05:30 43.07436 -105.62192 36097 ft 420 kts 317°
2026-04-29 05:30 43.12049 -105.67105 36096 ft 421 kts 317°
2026-04-29 05:31 43.16668 -105.72036 36114 ft 421 kts 317°
2026-04-29 05:31 43.21286 -105.76974 36106 ft 421 kts 317°
2026-04-29 05:32 43.25904 -105.81922 36109 ft 421 kts 317°
2026-04-29 05:32 43.30510 -105.86868 36109 ft 420 kts 317°
2026-04-29 05:33 43.35115 -105.91822 36123 ft 420 kts 317°
2026-04-29 05:33 43.39715 -105.96781 36122 ft 420 kts 317°
2026-04-29 05:34 43.44312 -106.01747 36113 ft 420 kts 317°
2026-04-29 05:34 43.48867 -106.06676 36145 ft 419 kts 317°
2026-04-29 05:35 43.53450 -106.11646 36132 ft 419 kts 317°
2026-04-29 05:35 43.58032 -106.16626 36129 ft 420 kts 317°
2026-04-29 05:36 43.62617 -106.21617 36126 ft 420 kts 317°
2026-04-29 05:36 43.67196 -106.26612 36130 ft 420 kts 317°
2026-04-29 05:37 43.71778 -106.31621 36127 ft 420 kts 317°
2026-04-29 05:37 43.76352 -106.36630 36125 ft 419 kts 317°
2026-04-29 05:38 43.80924 -106.41648 36146 ft 420 kts 317°
2026-04-29 05:38 43.85498 -106.46679 36134 ft 420 kts 317°
2026-04-29 05:39 43.90074 -106.51722 36135 ft 420 kts 317°
2026-04-29 05:39 43.94650 -106.56774 36137 ft 420 kts 317°
2026-04-29 05:40 43.99222 -106.61833 36152 ft 420 kts 318°
2026-04-29 05:40 44.03796 -106.66904 36150 ft 421 kts 318°
2026-04-29 05:41 44.08372 -106.71987 36158 ft 421 kts 318°
2026-04-29 05:41 44.12943 -106.77075 36157 ft 420 kts 318°
2026-04-29 05:42 44.17507 -106.82166 36173 ft 420 kts 318°
2026-04-29 05:42 44.22069 -106.87265 36175 ft 420 kts 318°
2026-04-29 05:43 44.26595 -106.92335 36172 ft 420 kts 318°
2026-04-29 05:43 44.31144 -106.97441 36199 ft 420 kts 318°
2026-04-29 05:44 44.35694 -107.02558 36199 ft 420 kts 318°
2026-04-29 05:44 44.40241 -107.07681 36201 ft 420 kts 318°
2026-04-29 05:45 44.44783 -107.12811 36196 ft 420 kts 318°
2026-04-29 05:45 44.49320 -107.17946 36210 ft 419 kts 318°
2026-04-29 05:46 44.53859 -107.23092 36202 ft 420 kts 318°
2026-04-29 05:46 44.58402 -107.28255 36187 ft 420 kts 318°
2026-04-29 05:47 44.62944 -107.33426 36190 ft 420 kts 318°
2026-04-29 05:47 44.67479 -107.38601 36191 ft 420 kts 318°
2026-04-29 05:48 44.72014 -107.43786 36193 ft 420 kts 318°
2026-04-29 05:48 44.76549 -107.48982 36181 ft 420 kts 318°
2026-04-29 05:49 44.81082 -107.54187 36190 ft 420 kts 318°
2026-04-29 05:49 44.85606 -107.59392 36197 ft 420 kts 318°
2026-04-29 05:50 44.90122 -107.64599 36178 ft 419 kts 318°
2026-04-29 05:50 44.94605 -107.69779 36173 ft 419 kts 318°
2026-04-29 05:51 44.99112 -107.74996 36176 ft 419 kts 319°
2026-04-29 05:51 45.03613 -107.80219 36171 ft 419 kts 319°
2026-04-29 05:52 45.07383 -107.84601 36173 ft 418 kts 319°
2026-04-29 05:52 45.12606 -107.90687 36173 ft 419 kts 318°
2026-04-29 05:53 45.16346 -107.95053 36172 ft 419 kts 319°
2026-04-29 05:53 45.20840 -108.00309 36146 ft 419 kts 319°
2026-04-29 05:54 45.25329 -108.05571 36152 ft 419 kts 319°
2026-04-29 05:54 45.29819 -108.10845 36153 ft 419 kts 319°
2026-04-29 05:55 45.34310 -108.16132 36154 ft 419 kts 319°
2026-04-29 05:55 45.38802 -108.21431 36154 ft 419 kts 319°
2026-04-29 05:56 45.43290 -108.26736 36152 ft 419 kts 319°
2026-04-29 05:56 45.47778 -108.32053 36149 ft 420 kts 319°
2026-04-29 05:57 45.52263 -108.37378 36155 ft 419 kts 319°
2026-04-29 05:57 45.56743 -108.42707 36147 ft 419 kts 319°
2026-04-29 05:58 45.61214 -108.48038 36147 ft 418 kts 319°
2026-04-29 05:58 45.65675 -108.53369 36158 ft 418 kts 319°
2026-04-29 05:59 45.70096 -108.58663 36149 ft 417 kts 319°
2026-04-29 05:59 45.74541 -108.63997 36152 ft 417 kts 319°
2026-04-29 06:00 45.78979 -108.69334 36156 ft 416 kts 319°
2026-04-29 06:00 45.83408 -108.74672 36162 ft 416 kts 319°
2026-04-29 06:01 45.87833 -108.80017 36149 ft 416 kts 319°
2026-04-29 06:01 45.92256 -108.85371 36152 ft 416 kts 319°
2026-04-29 06:02 45.96685 -108.90743 36149 ft 417 kts 319°
2026-04-29 06:02 46.01114 -108.96127 36150 ft 416 kts 319°
2026-04-29 06:03 46.05533 -109.01511 36145 ft 416 kts 319°
2026-04-29 06:03 46.09947 -109.06901 36150 ft 416 kts 319°
2026-04-29 06:04 46.14358 -109.12299 36151 ft 416 kts 319°
2026-04-29 06:04 46.18765 -109.17703 36158 ft 416 kts 319°
2026-04-29 06:05 46.23167 -109.23113 36149 ft 416 kts 319°
2026-04-29 06:05 46.27574 -109.28541 36154 ft 416 kts 319°
2026-04-29 06:06 46.31978 -109.33978 36149 ft 416 kts 319°
2026-04-29 06:06 46.36379 -109.39423 36153 ft 416 kts 319°
2026-04-29 06:07 46.40780 -109.44879 36152 ft 416 kts 319°
2026-04-29 06:07 46.45180 -109.50347 36152 ft 416 kts 319°
2026-04-29 06:08 46.49574 -109.55819 36148 ft 416 kts 319°
2026-04-29 06:08 46.53950 -109.61328 36150 ft 416 kts 318°
2026-04-29 06:09 46.58280 -109.66916 36151 ft 416 kts 318°
2026-04-29 06:09 46.62573 -109.72483 36146 ft 416 kts 318°
2026-04-29 06:10 46.66894 -109.78088 36147 ft 416 kts 318°
2026-04-29 06:10 46.71214 -109.83696 36150 ft 416 kts 318°
2026-04-29 06:11 46.75534 -109.89313 36119 ft 416 kts 318°
2026-04-29 06:11 46.79851 -109.94938 36133 ft 416 kts 318°
2026-04-29 06:12 46.84157 -110.00562 36134 ft 415 kts 318°
2026-04-29 06:12 46.88456 -110.06190 36143 ft 415 kts 318°
2026-04-29 06:13 46.92749 -110.11822 36133 ft 414 kts 318°
2026-04-29 06:13 46.97033 -110.17455 36131 ft 414 kts 318°
2026-04-29 06:14 47.01306 -110.23087 36129 ft 413 kts 318°
2026-04-29 06:14 47.05569 -110.28718 36144 ft 412 kts 318°
2026-04-29 06:15 47.09826 -110.34353 36143 ft 412 kts 317°
2026-04-29 06:15 47.14076 -110.39992 36142 ft 412 kts 317°
2026-04-29 06:16 47.18324 -110.45641 36143 ft 412 kts 317°
2026-04-29 06:16 47.22569 -110.51299 36152 ft 412 kts 317°
2026-04-29 06:17 47.26787 -110.56932 36141 ft 412 kts 317°
2026-04-29 06:17 47.31056 -110.62648 36139 ft 412 kts 317°
2026-04-29 06:18 47.35296 -110.68339 36138 ft 412 kts 317°
2026-04-29 06:18 47.39503 -110.73997 36147 ft 412 kts 317°
2026-04-29 06:19 47.43741 -110.79709 36139 ft 413 kts 317°
2026-04-29 06:19 47.47978 -110.85433 36139 ft 413 kts 317°
2026-04-29 06:20 47.52213 -110.91168 36135 ft 413 kts 317°
2026-04-29 06:20 47.56443 -110.96909 36138 ft 413 kts 317°
2026-04-29 06:21 47.60673 -111.02663 36135 ft 413 kts 317°
2026-04-29 06:21 47.64899 -111.08425 36135 ft 413 kts 317°
2026-04-29 06:22 47.69123 -111.14198 36143 ft 413 kts 317°
2026-04-29 06:22 47.73347 -111.19984 36141 ft 413 kts 317°
2026-04-29 06:23 47.77566 -111.25776 36139 ft 413 kts 317°
2026-04-29 06:23 47.81788 -111.31587 36142 ft 414 kts 317°
2026-04-29 06:24 47.86009 -111.37409 36136 ft 414 kts 317°
2026-04-29 06:24 47.90235 -111.43252 36135 ft 414 kts 317°
2026-04-29 06:25 47.94458 -111.49104 36139 ft 415 kts 317°
2026-04-29 06:25 47.98687 -111.54978 36132 ft 415 kts 317°
2026-04-29 06:26 48.02910 -111.60858 36134 ft 415 kts 317°
2026-04-29 06:26 48.07135 -111.66754 36133 ft 415 kts 317°
2026-04-29 06:27 48.11354 -111.72657 36136 ft 415 kts 317°
2026-04-29 06:27 48.15571 -111.78570 36127 ft 415 kts 317°
2026-04-29 06:28 48.19784 -111.84491 36129 ft 415 kts 317°
2026-04-29 06:28 48.23966 -111.90382 36127 ft 415 kts 317°
2026-04-29 06:29 48.28167 -111.96315 36116 ft 414 kts 317°
2026-04-29 06:29 48.32362 -112.02252 36126 ft 414 kts 316°
2026-04-29 06:30 48.38638 -112.11162 36124 ft 414 kts 316°
2026-04-29 06:31 48.42816 -112.17113 36128 ft 413 kts 316°
2026-04-29 06:31 48.46991 -112.23072 36122 ft 413 kts 316°
2026-04-29 06:32 48.51165 -112.29043 36114 ft 414 kts 316°
2026-04-29 06:32 48.55335 -112.35023 36148 ft 414 kts 316°
2026-04-29 06:33 48.59502 -112.41014 36151 ft 414 kts 316°
2026-04-29 06:33 48.63669 -112.47019 36148 ft 414 kts 316°
2026-04-29 06:34 48.67839 -112.53042 36109 ft 415 kts 316°
2026-04-29 06:34 48.72008 -112.59079 36112 ft 415 kts 316°
2026-04-29 06:35 48.76151 -112.65094 36115 ft 416 kts 316°
2026-04-29 06:35 48.80323 -112.71163 36110 ft 416 kts 316°
2026-04-29 06:36 48.84498 -112.77254 36107 ft 417 kts 316°
2026-04-29 06:36 48.88676 -112.83362 36115 ft 417 kts 316°
2026-04-29 06:37 48.92848 -112.89478 36108 ft 417 kts 316°
2026-04-29 06:37 48.97022 -112.95611 36111 ft 417 kts 316°
2026-04-29 06:38 49.01187 -113.01761 36116 ft 417 kts 316°
2026-04-29 06:38 49.05301 -113.08002 36100 ft 417 kts 315°
2026-04-29 06:39 49.09387 -113.14259 36100 ft 416 kts 315°
2026-04-29 06:39 49.13473 -113.20520 36107 ft 416 kts 315°
2026-04-29 06:40 49.17551 -113.26774 36099 ft 415 kts 315°
2026-04-29 06:40 49.21624 -113.33030 36101 ft 415 kts 315°
2026-04-29 06:41 49.25663 -113.39250 36103 ft 414 kts 315°
2026-04-29 06:41 49.29721 -113.45514 36095 ft 414 kts 315°
2026-04-29 06:42 49.33777 -113.51789 36096 ft 414 kts 315°
2026-04-29 06:42 49.37143 -113.57011 36106 ft 414 kts 315°
2026-04-29 06:43 49.41193 -113.63306 36128 ft 415 kts 315°
2026-04-29 06:43 49.45242 -113.69616 36143 ft 415 kts 315°
2026-04-29 06:44 49.49297 -113.75950 36167 ft 416 kts 315°
2026-04-29 06:44 49.53354 -113.82305 36177 ft 417 kts 315°
2026-04-29 06:45 49.57413 -113.88679 36182 ft 417 kts 315°
2026-04-29 06:45 49.61478 -113.95078 36183 ft 418 kts 315°
2026-04-29 06:46 49.65548 -114.01501 36167 ft 419 kts 315°
2026-04-29 06:46 49.69590 -114.07896 36157 ft 419 kts 315°
2026-04-29 06:47 49.73659 -114.14351 36133 ft 420 kts 315°
2026-04-29 06:47 49.77730 -114.20825 36111 ft 419 kts 315°
2026-04-29 06:48 49.81790 -114.27298 36101 ft 419 kts 315°
2026-04-29 06:48 49.85848 -114.33784 36104 ft 419 kts 315°
2026-04-29 06:49 49.89899 -114.40277 36097 ft 419 kts 315°
2026-04-29 06:49 49.93943 -114.46774 36095 ft 418 kts 315°
2026-04-29 06:50 49.97980 -114.53278 36097 ft 418 kts 315°
2026-04-29 06:50 50.02016 -114.59795 36101 ft 418 kts 315°
2026-04-29 06:51 50.06039 -114.66309 36103 ft 418 kts 315°
2026-04-29 06:51 50.10060 -114.72837 36097 ft 418 kts 315°
2026-04-29 06:52 50.14077 -114.79375 36100 ft 418 kts 315°
2026-04-29 06:52 50.18093 -114.85929 36118 ft 418 kts 315°
2026-04-29 06:53 50.22084 -114.92460 36099 ft 418 kts 315°
2026-04-29 06:53 50.26095 -114.99039 36091 ft 419 kts 315°
2026-04-29 06:54 50.30107 -115.05637 36090 ft 418 kts 315°
2026-04-29 06:54 50.34109 -115.12236 36089 ft 418 kts 315°
2026-04-29 06:55 50.38105 -115.18843 36096 ft 418 kts 315°
2026-04-29 06:55 50.42101 -115.25467 36083 ft 418 kts 315°
2026-04-29 06:56 50.46098 -115.32110 36077 ft 419 kts 315°
2026-04-29 06:56 50.50093 -115.38769 36060 ft 419 kts 315°
2026-04-29 06:57 50.54091 -115.45447 36069 ft 420 kts 315°
2026-04-29 06:57 50.58066 -115.52157 36082 ft 419 kts 314°
2026-04-29 06:58 50.62031 -115.58900 36077 ft 420 kts 314°
2026-04-29 06:58 50.65996 -115.65659 36077 ft 420 kts 314°
2026-04-29 06:59 50.69937 -115.72391 36075 ft 421 kts 314°
2026-04-29 06:59 50.73905 -115.79183 36077 ft 420 kts 314°
2026-04-29 07:00 50.77862 -115.85976 36074 ft 420 kts 314°
2026-04-29 07:00 50.81809 -115.92769 36077 ft 419 kts 314°
2026-04-29 07:01 50.85752 -115.99574 36076 ft 419 kts 314°
2026-04-29 07:01 50.89691 -116.06391 36081 ft 419 kts 314°
2026-04-29 07:02 50.93624 -116.13214 36069 ft 419 kts 314°
2026-04-29 07:02 50.97547 -116.20039 36076 ft 419 kts 314°
2026-04-29 07:03 51.01468 -116.26880 36077 ft 419 kts 314°
2026-04-29 07:03 51.05380 -116.33724 36074 ft 418 kts 314°
2026-04-29 07:04 51.09284 -116.40571 36082 ft 418 kts 314°
2026-04-29 07:04 51.13164 -116.47395 36083 ft 418 kts 314°
2026-04-29 07:05 51.17059 -116.54263 36090 ft 418 kts 314°
2026-04-29 07:05 51.20949 -116.61142 36055 ft 418 kts 314°
2026-04-29 07:06 51.24830 -116.68024 36075 ft 417 kts 314°
2026-04-29 07:06 51.28706 -116.74915 36073 ft 417 kts 314°
2026-04-29 07:07 51.32575 -116.81814 36078 ft 417 kts 314°
2026-04-29 07:07 51.36446 -116.88734 36078 ft 417 kts 314°
2026-04-29 07:08 51.40313 -116.95666 36082 ft 418 kts 314°
2026-04-29 07:08 51.44179 -117.02616 36094 ft 418 kts 314°
2026-04-29 07:09 51.48047 -117.09587 36094 ft 418 kts 313°
2026-04-29 07:09 51.51913 -117.16575 36089 ft 419 kts 313°
2026-04-29 07:10 51.55774 -117.23575 36083 ft 419 kts 313°
2026-04-29 07:10 51.59631 -117.30586 36092 ft 418 kts 313°
2026-04-29 07:11 51.63460 -117.37563 36097 ft 418 kts 313°
2026-04-29 07:11 51.67307 -117.44595 36093 ft 419 kts 313°
2026-04-29 07:12 51.71152 -117.51643 36109 ft 419 kts 313°
2026-04-29 07:12 51.74996 -117.58707 36109 ft 419 kts 313°
2026-04-29 07:13 51.78838 -117.65788 36108 ft 419 kts 313°
2026-04-29 07:13 51.82675 -117.72881 36125 ft 419 kts 313°
2026-04-29 07:14 51.86512 -117.79993 36111 ft 420 kts 313°
2026-04-29 07:14 51.90342 -117.87113 36124 ft 419 kts 313°
2026-04-29 07:15 51.94162 -117.94235 36117 ft 418 kts 313°
2026-04-29 07:15 51.97970 -118.01353 36128 ft 417 kts 313°
2026-04-29 07:16 52.01769 -118.08474 36120 ft 417 kts 313°
2026-04-29 07:16 52.05562 -118.15606 36129 ft 418 kts 313°
2026-04-29 07:17 52.09356 -118.22758 36114 ft 418 kts 313°
2026-04-29 07:17 52.13148 -118.29926 36115 ft 419 kts 313°
2026-04-29 07:18 52.16941 -118.37118 36114 ft 418 kts 312°
2026-04-29 07:18 52.20726 -118.44316 36127 ft 418 kts 312°
2026-04-29 07:19 52.24487 -118.51489 36115 ft 419 kts 312°
2026-04-29 07:19 52.28272 -118.58726 36099 ft 419 kts 312°
2026-04-29 07:20 52.32057 -118.65985 36121 ft 420 kts 312°
2026-04-29 07:20 52.35837 -118.73257 36113 ft 420 kts 312°
2026-04-29 07:21 52.39615 -118.80543 36101 ft 420 kts 312°
2026-04-29 07:21 52.43388 -118.87844 36090 ft 419 kts 312°
2026-04-29 07:22 52.47147 -118.95137 36112 ft 418 kts 312°
2026-04-29 07:22 52.50896 -119.02432 36110 ft 418 kts 312°
2026-04-29 07:23 52.54639 -119.09738 36098 ft 418 kts 312°
2026-04-29 07:23 52.58377 -119.17054 36099 ft 418 kts 311°
2026-04-29 07:24 52.62085 -119.24333 36106 ft 417 kts 311°
2026-04-29 07:24 52.65806 -119.31657 36110 ft 416 kts 311°
2026-04-29 07:25 52.69510 -119.38972 36119 ft 415 kts 311°
2026-04-29 07:25 52.73214 -119.46305 36120 ft 417 kts 311°
2026-04-29 07:26 52.76919 -119.53664 36127 ft 416 kts 311°
2026-04-29 07:26 52.80619 -119.61034 36127 ft 417 kts 311°
2026-04-29 07:27 52.84321 -119.68429 36129 ft 418 kts 311°
2026-04-29 07:27 52.88033 -119.75866 36133 ft 419 kts 311°
2026-04-29 07:28 52.91747 -119.83331 36140 ft 420 kts 311°
2026-04-29 07:28 52.95464 -119.90822 36142 ft 421 kts 311°
2026-04-29 07:29 52.99179 -119.98331 36142 ft 421 kts 311°
2026-04-29 07:29 53.02861 -120.05891 36146 ft 421 kts 310°
2026-04-29 07:30 53.06499 -120.13512 36139 ft 421 kts 310°
2026-04-29 07:30 53.09513 -120.19848 36140 ft 420 kts 310°